Location: Beneden-Haastrecht
(52.0012°N, 4.7557°E)
Time: 03:46:13
(UTC+00:00)

Cosmos 1452 Rocket - Pass Details

Date: 24 October 2020
Orbit: 766 x 775 km, 74.1° (Epoch: 24 November)

Event Time Altitude Azimuth Distance (km) Brightness Sun altitude
Rises 17:09:42 0° 197° (SSW) 3,229 7.1 -7.2°
Reaches altitude 10° 17:12:04 10° 196° (SSW) 2,308 6.4 -7.5°
Maximum altitude 17:17:18 76° 112° (ESE) 801 3.5 -8.3°
Drops below altitude 10° 17:22:35 10° 28° (NNE) 2,331 5.7 -9.1°
Sets 17:24:59 0° 27° (NNE) 3,264 6.4 -9.5°
